Location: Driftpile
(55.3500°N, 115.7667°W)
Time: 04:52:26
(UTC+00:00)

ISS - Pass Details

Date: 04 December 2021
Orbit: 413 x 423 km, 51.6° (Epoch: 20 January)

Event Time Altitude Azimuth Distance (km) Brightness Sun altitude
Rises 01:24:01 0° 273° (W) 2,384 1.5 -16.9°
Reaches altitude 10° 01:26:19 10° 262° (W) 1,515 0.4 -17.2°
Maximum altitude 01:29:15 27° 202° (SSW) 843 -1.9 -17.6°
Enters shadow 01:31:18 16° 151° (SSE) 1,213 -1.6 -17.9°
